Weather History for Mammoth, CA

Change the Weather History Date:

Tuesday, June 4, 2013

  Actual Average Record
Temperature  
Mean Temperature 65 °F -  
Max Temperature 82 °F 66 °F 82 °F (2013)
Min Temperature 48 °F 55 °F 35 °F (1999)
Growing Degree Days 15 (Base 50)    
Moisture  
Dew Point 30 °F    
Average Humidity 33    
Maximum Humidity 58    
Minimum Humidity 11    
Precipitation  
Precipitation 0.00 in - - ()
Sea Level Pressure  
Sea Level Pressure 30.18 in    
Wind  
Wind Speed 8 mph (West)    
Max Wind Speed 20 mph    
Max Gust Speed 29 mph    
Visibility 10 miles    
Events      
Averages and records for this station are not official NWS values.
T = Trace of Precipitation, MM = Missing Value Source: NWS Daily Summary

Daily Weather History Graph

Daily Weather History Graph

Search for Another Location

Airport:

Trip Planner

Search our weather history database for the weather conditions in past years. The results will help you decide how hot, cold, wet, or windy it might be!

Date:

Astronomy

Jun. 04, 2013 Rise Set
Actual Time 5:34 AM PDT 8:13 PM PDT
Civil Twilight 5:03 AM PDT 8:44 PM PDT
Nautical Twilight 4:25 AM PDT 9:22 PM PDT
Astronomical Twilight 3:42 AM PDT 10:05 PM PDT
Moon 3:03 AM PDT (6/4) 4:50 PM PDT (6/4)
Length of Visible Light 15h 40m
Length of Day
14h 38m
Waning Crescent, 13% of the Moon is Illuminated
Jun 4
Waning Crescent
Jun 8
New
Jun 16
First Quarter
Jun 23
Full
Jun 29
Last Quarter

Hourly Weather History & Observations

Time (PDT) Temp. Dew Point Humidity Pressure Visibility Wind Dir Wind Speed Gust Speed Precip Events Conditions
12:15 AM 51.8 °F 35.6 °F 54% 30.15 in 10.0 mi West 8.1 mph - N/A   Clear
12:35 AM 51.8 °F 35.6 °F 54% 30.15 in 10.0 mi West 8.1 mph - N/A   Clear
12:55 AM 50.0 °F 35.6 °F 58% 30.15 in 10.0 mi Calm Calm - N/A   Clear
1:15 AM 50.0 °F 35.6 °F 58% 30.15 in 10.0 mi West 10.4 mph - N/A   Clear
1:35 AM 50.0 °F 35.6 °F 58% 30.15 in 10.0 mi West 10.4 mph - N/A   Clear
1:55 AM 50.0 °F 33.8 °F 54% 30.15 in 10.0 mi West 12.7 mph - N/A   Clear
2:15 AM 50.0 °F 33.8 °F 54% 30.15 in 10.0 mi NW 5.8 mph - N/A   Clear
2:35 AM 51.8 °F 33.8 °F 50% 30.15 in 10.0 mi WNW 10.4 mph - N/A   Clear
2:55 AM 51.8 °F 33.8 °F 50% 30.15 in 10.0 mi West 10.4 mph - N/A   Clear
3:15 AM 51.8 °F 33.8 °F 50% 30.15 in 10.0 mi West 10.4 mph - N/A   Clear
3:35 AM 51.8 °F 32.0 °F 47% 30.15 in 10.0 mi WNW 12.7 mph - N/A   Clear
3:55 AM 50.0 °F 32.0 °F 50% 30.15 in 10.0 mi NW 9.2 mph - N/A   Clear
4:15 AM 48.2 °F 32.0 °F 54% 30.16 in 10.0 mi West 11.5 mph - N/A   Clear
4:35 AM 50.0 °F 32.0 °F 50% 30.16 in 10.0 mi West 10.4 mph - N/A   Clear
4:55 AM 50.0 °F 32.0 °F 50% 30.16 in 10.0 mi West 8.1 mph - N/A   Clear
5:15 AM 48.2 °F 32.0 °F 54% 30.17 in 10.0 mi West 10.4 mph - N/A   Clear
5:35 AM 48.2 °F 32.0 °F 54% 30.17 in 10.0 mi West 11.5 mph - N/A   Clear
5:55 AM 48.2 °F 32.0 °F 54% 30.17 in 10.0 mi West 5.8 mph - N/A   Clear
6:15 AM 48.2 °F 32.0 °F 54% 30.17 in 10.0 mi West 10.4 mph - N/A   Clear
6:35 AM 50.0 °F 32.0 °F 50% 30.18 in 10.0 mi West 8.1 mph - N/A   Clear
6:55 AM 53.6 °F 32.0 °F 44% 30.18 in 10.0 mi West 9.2 mph - N/A   Clear
7:15 AM 55.4 °F 33.8 °F 44% 30.18 in 10.0 mi West 6.9 mph - N/A   Clear
7:35 AM 59.0 °F 35.6 °F 42% 30.18 in 10.0 mi West 8.1 mph - N/A   Clear
7:55 AM 62.6 °F 33.8 °F 34% 30.19 in 10.0 mi West 6.9 mph - N/A   Clear
8:15 AM 64.4 °F 26.6 °F 24% 30.19 in 10.0 mi West 9.2 mph - N/A   Clear
8:35 AM 66.2 °F 24.8 °F 21% 30.19 in 10.0 mi West 9.2 mph - N/A   Clear
8:55 AM 68.0 °F 23.0 °F 18% 30.19 in 10.0 mi NW 5.8 mph 16.1 mph N/A   Clear
9:15 AM 69.8 °F 24.8 °F 18% 30.20 in 10.0 mi West 8.1 mph - N/A   Clear
9:35 AM 69.8 °F 24.8 °F 18% 30.19 in 10.0 mi WNW 9.2 mph - N/A   Clear
9:55 AM 71.6 °F 23.0 °F 16% 30.19 in 10.0 mi ENE 3.5 mph - N/A   Clear
10:15 AM 71.6 °F 24.8 °F 17% 30.19 in 10.0 mi SSE 5.8 mph - N/A   Clear
10:35 AM 73.4 °F 24.8 °F 16% 30.19 in 10.0 mi WSW 5.8 mph - N/A   Clear
10:55 AM 75.2 °F 24.8 °F 15% 30.19 in 10.0 mi Calm Calm - N/A   Clear
11:15 AM 75.2 °F 24.8 °F 15% 30.19 in 10.0 mi WNW 5.8 mph - N/A   Clear
11:35 AM 75.2 °F 24.8 °F 15% 30.19 in 10.0 mi ESE 9.2 mph - N/A   Clear
11:55 AM 77.0 °F 24.8 °F 14% 30.18 in 10.0 mi SSE 5.8 mph 17.3 mph N/A   Clear
12:15 PM 77.0 °F 24.8 °F 14% 30.18 in 10.0 mi SSE 4.6 mph - N/A   Clear
12:35 PM 78.8 °F 24.8 °F 14% 30.17 in 10.0 mi ESE 5.8 mph - N/A   Clear
12:55 PM 78.8 °F 24.8 °F 14% 30.17 in 10.0 mi Calm Calm - N/A   Clear
1:15 PM 80.6 °F 24.8 °F 13% 30.16 in 10.0 mi East 3.5 mph - N/A   Scattered Clouds
1:35 PM 80.6 °F 24.8 °F 13% 30.16 in 10.0 mi SE 6.9 mph 16.1 mph N/A   Clear
1:55 PM 80.6 °F 23.0 °F 12% 30.16 in 10.0 mi South 6.9 mph - N/A   Clear
2:15 PM 80.6 °F 23.0 °F 12% 30.15 in 10.0 mi SSE 6.9 mph 16.1 mph N/A   Clear
2:35 PM 78.8 °F 23.0 °F 13% 30.15 in 10.0 mi ESE 8.1 mph 18.4 mph N/A   Scattered Clouds
2:55 PM 78.8 °F 23.0 °F 13% 30.15 in 10.0 mi Calm Calm - N/A   Scattered Clouds
3:15 PM 82.4 °F 23.0 °F 11% 30.15 in 10.0 mi ESE 3.5 mph 20.7 mph N/A   Clear
3:35 PM 80.6 °F 24.8 °F 13% 30.15 in 10.0 mi NW 18.4 mph 25.3 mph N/A   Scattered Clouds
3:55 PM 75.2 °F 32.0 °F 21% 30.15 in 10.0 mi WNW 17.3 mph 25.3 mph N/A   Mostly Cloudy
4:15 PM 75.2 °F 32.0 °F 21% 30.15 in 10.0 mi West 15.0 mph 24.2 mph N/A   Scattered Clouds
4:35 PM 77.0 °F 32.0 °F 19% 30.16 in 10.0 mi West 15.0 mph 24.2 mph N/A   Clear
4:55 PM 73.4 °F 32.0 °F 22% 30.16 in 10.0 mi SW 12.7 mph 28.8 mph N/A   Scattered Clouds
5:15 PM 73.4 °F 32.0 °F 22% 30.16 in 10.0 mi West 13.8 mph - N/A   Scattered Clouds
5:35 PM 71.6 °F 32.0 °F 23% 30.18 in 10.0 mi West 13.8 mph 24.2 mph N/A   Mostly Cloudy
5:55 PM 71.6 °F 32.0 °F 23% 30.18 in 10.0 mi SW 16.1 mph 24.2 mph N/A   Scattered Clouds
6:15 PM 69.8 °F 30.2 °F 23% 30.17 in 10.0 mi South 19.6 mph 27.6 mph N/A   Mostly Cloudy
6:35 PM 69.8 °F 30.2 °F 23% 30.17 in 10.0 mi SSW 19.6 mph 27.6 mph N/A   Scattered Clouds
6:55 PM 69.8 °F 30.2 °F 23% 30.18 in 10.0 mi SSW 18.4 mph 26.5 mph N/A   Scattered Clouds
7:15 PM 69.8 °F 32.0 °F 25% 30.18 in 10.0 mi SSW 11.5 mph 23.0 mph N/A   Clear
7:35 PM 69.8 °F 33.8 °F 27% 30.19 in 10.0 mi WNW 9.2 mph 16.1 mph N/A   Clear
7:55 PM 66.2 °F 35.6 °F 32% 30.20 in 10.0 mi NNW 5.8 mph - N/A   Clear
8:15 PM 64.4 °F 35.6 °F 34% 30.21 in 10.0 mi NNW 5.8 mph - N/A   Clear
8:35 PM 66.2 °F 33.8 °F 30% 30.22 in 10.0 mi South 6.9 mph - N/A   Clear
8:55 PM 62.6 °F 32.0 °F 32% 30.22 in 10.0 mi West 4.6 mph - N/A   Clear
9:15 PM 60.8 °F 32.0 °F 34% 30.22 in 10.0 mi NW 3.5 mph - N/A   Clear
9:35 PM 59.0 °F 33.8 °F 39% 30.22 in 10.0 mi WNW 3.5 mph - N/A   Clear
9:55 PM 59.0 °F 35.6 °F 42% 30.23 in 10.0 mi West 3.5 mph - N/A   Clear
10:15 PM 57.2 °F 35.6 °F 44% 30.24 in 10.0 mi West 8.1 mph - N/A   Clear
10:35 PM 57.2 °F 35.6 °F 44% 30.24 in 10.0 mi West 10.4 mph - N/A   Clear
10:55 PM 55.4 °F 33.8 °F 44% 30.24 in 10.0 mi West 9.2 mph - N/A   Clear
11:15 PM 55.4 °F 33.8 °F 44% 30.24 in 10.0 mi West 9.2 mph - N/A   Clear
11:35 PM 55.4 °F 33.8 °F 44% 30.24 in 10.0 mi West 9.2 mph - N/A   Clear
11:55 PM 53.6 °F 33.8 °F 47% 30.24 in 10.0 mi Calm Calm - N/A   Clear